When you browse on this site, cookies collect data to enhance your experience and personalize the content and advertising you see.
Visit our Privacy Policy to learn more. By continuing to use the site, you agree to this use of cookies and data.
  • In Romania
  • List of Countries
  • For 7 days
  • Water Temperature
  • Satellite Maps
  • Weather Map
  • Weather Widgets
  • user-avatar
    Login

    Hourly Weather Koluszki

    Today, 20 May, Monday

    Time Temperature Precipitation Wind Pressure Humidity
    00:00 +16°C° 0 mm 3 mps 737 mmHg 91%
    01:00 +14°C° 0 mm 3 mps 737 mmHg 93%
    02:00 +14°C° 0 mm 3 mps 737 mmHg 94%
    03:00 +14°C° 0 mm 3 mps 737 mmHg 95%
    04:00 +14°C° 0 mm 3 mps 736 mmHg 96%
    05:00 +15°C° 0 mm 4 mps 736 mmHg 93%
    06:00 +17°C° 0 mm 4 mps 736 mmHg 90%
    07:00 +19°C° 0 mm 5 mps 736 mmHg 87%
    08:00 +20°C° 0 mm 5 mps 736 mmHg 82%
    09:00 +21°C° 0 mm 5 mps 736 mmHg 78%
    10:00 +23°C° 0 mm 6 mps 736 mmHg 73%
    11:00 +23°C° 0.3 mm 6 mps 736 mmHg 70%
    12:00 +24°C° 0.3 mm 6 mps 736 mmHg 66%
    13:00 +26°C° 0.3 mm 6 mps 735 mmHg 62%
    14:00 +25°C° 1.3 mm 5 mps 735 mmHg 66%
    15:00 +25°C° 1.3 mm 5 mps 735 mmHg 69%
    16:00 +23°C° 1.3 mm 4 mps 735 mmHg 73%
    17:00 +22°C° 0.4 mm 3 mps 735 mmHg 75%
    18:00 +21°C° 0.4 mm 3 mps 735 mmHg 78%
    19:00 +20°C° 0.4 mm 3 mps 735 mmHg 80%
    20:00 +19°C° 0.1 mm 3 mps 735 mmHg 84%
    21:00 +18°C° 0.1 mm 3 mps 735 mmHg 87%
    22:00 +17°C° 0.1 mm 3 mps 735 mmHg 91%
    23:00 +16°C° 0.3 mm 2 mps 735 mmHg 92%

    Tomorrow, 21 May, Tuesday

    Time Temperature Precipitation Wind Pressure Humidity
    00:00 +16°C° 0.3 mm 2 mps 735 mmHg 92%
    01:00 +15°C° 0.3 mm 2 mps 735 mmHg 93%
    02:00 +15°C° 0.1 mm 2 mps 735 mmHg 93%
    03:00 +15°C° 0.1 mm 1 mps 735 mmHg 92%
    04:00 +14°C° 0.1 mm 1 mps 735 mmHg 92%
    05:00 +15°C° 0.1 mm 1 mps 735 mmHg 90%
    06:00 +16°C° 0.1 mm 1 mps 735 mmHg 87%
    07:00 +16°C° 0.1 mm 1 mps 735 mmHg 85%
    08:00 +18°C° 0.1 mm 1 mps 735 mmHg 85%
    09:00 +17°C° 0.1 mm 2 mps 735 mmHg 86%
    10:00 +17°C° 0.1 mm 2 mps 735 mmHg 86%
    11:00 +18°C° 0.3 mm 2 mps 735 mmHg 81%
    12:00 +19°C° 0.3 mm 3 mps 735 mmHg 76%
    13:00 +21°C° 0.3 mm 3 mps 735 mmHg 71%
    14:00 +20°C° 1.8 mm 3 mps 734 mmHg 74%
    15:00 +20°C° 1.8 mm 3 mps 734 mmHg 76%
    16:00 +19°C° 1.8 mm 3 mps 734 mmHg 79%
    17:00 +18°C° 1.5 mm 3 mps 734 mmHg 82%
    18:00 +18°C° 1.5 mm 3 mps 733 mmHg 84%
    19:00 +17°C° 1.5 mm 3 mps 733 mmHg 87%
    20:00 +16°C° 1.4 mm 3 mps 733 mmHg 89%
    21:00 +16°C° 1.4 mm 3 mps 733 mmHg 91%
    22:00 +14°C° 1.4 mm 4 mps 734 mmHg 93%
    23:00 +14°C° 0.5 mm 4 mps 734 mmHg 93%

    Day after tomorrow, 22 May, Wednesday

    Time Temperature Precipitation Wind Pressure Humidity
    00:00 +14°C° 0.5 mm 4 mps 734 mmHg 93%
    01:00 +14°C° 0.5 mm 5 mps 734 mmHg 94%
    02:00 +14°C° 0.1 mm 5 mps 734 mmHg 94%
    03:00 +14°C° 0.1 mm 5 mps 734 mmHg 94%
    04:00 +14°C° 0.1 mm 5 mps 734 mmHg 94%
    05:00 +14°C° 0.1 mm 5 mps 734 mmHg 93%
    06:00 +14°C° 0.1 mm 5 mps 734 mmHg 93%
    07:00 +14°C° 0.1 mm 5 mps 734 mmHg 92%
    08:00 +15°C° 0.1 mm 5 mps 734 mmHg 91%
    09:00 +15°C° 0.1 mm 4 mps 735 mmHg 91%
    10:00 +15°C° 0.1 mm 4 mps 735 mmHg 90%
    11:00 +17°C° 0.1 mm 4 mps 735 mmHg 86%
    12:00 +18°C° 0.1 mm 4 mps 735 mmHg 82%
    13:00 +20°C° 0.1 mm 5 mps 735 mmHg 77%
    14:00 +20°C° 0.6 mm 4 mps 735 mmHg 78%
    15:00 +19°C° 0.6 mm 4 mps 735 mmHg 79%
    16:00 +19°C° 0.6 mm 4 mps 735 mmHg 80%
    17:00 +19°C° 0.6 mm 4 mps 735 mmHg 83%
    18:00 +18°C° 0.6 mm 3 mps 735 mmHg 86%
    19:00 +17°C° 0.6 mm 3 mps 735 mmHg 89%
    20:00 +16°C° 0 mm 3 mps 736 mmHg 92%
    21:00 +14°C° 0 mm 3 mps 736 mmHg 94%
    22:00 +13°C° 0 mm 4 mps 736 mmHg 96%
    23:00 +13°C° 0 mm 3 mps 736 mmHg 96%

    23 May, Thursday

    Time Temperature Precipitation Wind Pressure Humidity
    00:00 +12°C° 0 mm 3 mps 736 mmHg 97%
    01:00 +13°C° 0 mm 2 mps 736 mmHg 97%
    02:00 +13°C° 0.1 mm 2 mps 737 mmHg 97%
    03:00 +14°C° 0.1 mm 2 mps 737 mmHg 97%
    04:00 +14°C° 0.1 mm 2 mps 737 mmHg 97%
    05:00 +13°C° 0.5 mm 3 mps 737 mmHg 96%
    06:00 +14°C° 0.5 mm 4 mps 738 mmHg 95%
    07:00 +14°C° 0.5 mm 5 mps 738 mmHg 94%
    08:00 +14°C° 1 mm 5 mps 739 mmHg 94%
    09:00 +14°C° 1 mm 6 mps 740 mmHg 93%
    10:00 +14°C° 1 mm 7 mps 740 mmHg 93%
    11:00 +12°C° 0.5 mm 7 mps 740 mmHg 93%
    12:00 +11°C° 0.5 mm 7 mps 741 mmHg 92%
    13:00 +10°C° 0.5 mm 8 mps 741 mmHg 92%
    14:00 +10°C° 0.1 mm 8 mps 741 mmHg 91%
    15:00 +10°C° 0.1 mm 7 mps 742 mmHg 89%
    16:00 +10°C° 0.1 mm 7 mps 742 mmHg 88%
    17:00 +10°C° 0 mm 6 mps 742 mmHg 85%
    18:00 +9°C° 0 mm 6 mps 742 mmHg 83%
    19:00 +9°C° 0 mm 5 mps 743 mmHg 81%
    20:00 +10°C° 0 mm 4 mps 743 mmHg 81%
    21:00 +10°C° 0 mm 4 mps 743 mmHg 82%
    22:00 +9°C° 0 mm 3 mps 743 mmHg 83%
    23:00 +9°C° 0 mm 3 mps 743 mmHg 87%

    24 May, Friday

    Time Temperature Precipitation Wind Pressure Humidity
    00:00 +8°C° 0 mm 3 mps 743 mmHg 90%
    01:00 +7°C° 0 mm 3 mps 743 mmHg 94%
    02:00 +7°C° 0 mm 3 mps 743 mmHg 94%
    03:00 +5°C° 0 mm 3 mps 743 mmHg 94%
    04:00 +5°C° 0 mm 3 mps 743 mmHg 95%
    05:00 +7°C° 0 mm 3 mps 743 mmHg 91%
    06:00 +9°C° 0 mm 3 mps 743 mmHg 87%
    07:00 +10°C° 0 mm 3 mps 743 mmHg 83%
    08:00 +12°C° 0 mm 3 mps 743 mmHg 76%
    09:00 +13°C° 0 mm 3 mps 742 mmHg 69%
    10:00 +16°C° 0 mm 3 mps 742 mmHg 62%
    11:00 +17°C° 0 mm 3 mps 742 mmHg 59%
    12:00 +18°C° 0 mm 3 mps 741 mmHg 56%
    13:00 +18°C° 0 mm 2 mps 741 mmHg 53%
    14:00 +18°C° 0 mm 2 mps 741 mmHg 53%
    15:00 +18°C° 0 mm 2 mps 740 mmHg 54%
    16:00 +19°C° 0 mm 2 mps 740 mmHg 54%
    17:00 +17°C° 0 mm 2 mps 740 mmHg 59%
    18:00 +16°C° 0 mm 1 mps 740 mmHg 64%
    19:00 +15°C° 0 mm 1 mps 739 mmHg 70%
    20:00 +14°C° 0 mm 1 mps 739 mmHg 73%
    21:00 +13°C° 0 mm 1 mps 739 mmHg 76%
    22:00 +12°C° 0 mm 1 mps 740 mmHg 79%
    23:00 +11°C° 0 mm 1 mps 740 mmHg 81%

    25 May, Saturday

    Time Temperature Precipitation Wind Pressure Humidity
    00:00 +11°C° 0 mm 1 mps 739 mmHg 82%
    01:00 +11°C° 0 mm 1 mps 739 mmHg 83%
    02:00 +10°C° 0 mm 1 mps 739 mmHg 85%
    03:00 +10°C° 0 mm 1 mps 739 mmHg 86%
    04:00 +10°C° 0 mm 1 mps 739 mmHg 88%
    05:00 +11°C° 0 mm 1 mps 740 mmHg 83%
    06:00 +13°C° 0 mm 1 mps 740 mmHg 78%
    07:00 +15°C° 0 mm 1 mps 740 mmHg 73%
    08:00 +18°C° 0 mm 1 mps 740 mmHg 67%
    09:00 +19°C° 0 mm 1 mps 740 mmHg 60%
    10:00 +19°C° 0 mm 0 mps 740 mmHg 54%
    11:00 +19°C° 0 mm 0 mps 740 mmHg 52%
    12:00 +22°C° 0 mm 1 mps 740 mmHg 49%
    13:00 +23°C° 0 mm 1 mps 740 mmHg 47%
    14:00 +22°C° 0 mm 1 mps 740 mmHg 48%
    15:00 +22°C° 0 mm 1 mps 739 mmHg 48%
    16:00 +22°C° 0 mm 1 mps 739 mmHg 49%
    17:00 +20°C° 0 mm 2 mps 739 mmHg 56%
    18:00 +19°C° 0 mm 2 mps 739 mmHg 62%
    19:00 +17°C° 0 mm 2 mps 739 mmHg 69%
    20:00 +16°C° 0 mm 2 mps 740 mmHg 72%
    21:00 +15°C° 0 mm 1 mps 740 mmHg 75%
    22:00 +14°C° 0 mm 1 mps 740 mmHg 78%
    23:00 +14°C° 0 mm 1 mps 740 mmHg 79%
    Show more